Showing default

COSMOS 2330, 23792

Orbit data source: Space-Track

COSMOS 2330, 23792 is a payload satellite owned by VKS (CIS) in LEO that was launched on Mon, 19 Feb 1996 UTC via a TSIKLON-3 launch vehicle from the Plesetsk Missile And Space Complex (PKMTR). Payload-class satellites include a variety of spacecraft equipped with specific instruments for various scientific and technological missions. These include communications satellites like Starlink; space stations such as the ISS; scientific satellites like the Hubble; Earth observation satellites from companies like Planet Labs, Umbra, and HawkEye 360; GPS; miniature CubeSats for education and research; and military/defense satellites.

Loading next visibility...
Identifier
23792, 1996-009F
Orbit
LEO
Country
Flag of CISCIS
Related business
Manufacturer
NPO PM
Mission
Non-operational Defense Communications
Bus & Motor
STRELA-3, Unknown motor
Mass
225 kg wet, 225 kg dry
Launch date (UTC)
1996-02-19 (31 years ago)
Launch vehicle
TSIKLON-3
Launch site
Plesetsk Missile And Space Complex (PKMTR)
Object type
Payload
Rocket body
Debris
Shape & HBR
Cyl + 1 Ant, 3.5 m
Radar Cross Section
1.583 m², Large (>1 m²)

Expand to show TLE details & history
Last TLE update: 12 hours ago

TLE from 12 hours ago
0 COSMOS 2330
1 23792U 96009F   26266.04586068  .00000040  00000-0  16700-3 0  9997
2 23792  82.5763 281.6412 0010862 212.0368 148.0064 12.60979533407974
Epoch: 2026-09-23T01:06Z
TLE epoch observation values (Epoch: 2026-09-23T01:06:02.362Z)
Latitude
0.00005°
Longitude
-96.77125°
Altitude
1,428.818 km
Speed
7.143 km/s
True Right ascension
18h 46m 33s
True Declination
0° 00' 00"
Sunlit
Object was in daylight at epoch
Visualization orbit readout
Latitude
Unknown
Longitude
Unknown
Altitude
Unknown
Speed
Unknown
Apparent Right ascension
Unknown
Apparent Declination
Unknown
Sunlit
N/A
Visualization observer readout
Local Sidereal Time
06:07:39
Azimuth
Unknown
Elevation
Unknown
Doppler factor
Unknown
Orbital elements
Apogee altitude
1,424.693 km
Perigee altitude
1,407.76 km
Semi-major axis
7,794.364 km
Eccentricity
0.00109
Inclination
82.5763°
RAAN
281.6412°
Arg. of periapsis
212.0368°
True anomaly
148.07227°
Mean anomaly
148.0064°
Eccentric anomaly
148.03934°
Mean motion
3.15408 °/min
Orbital period
114.14 mins
BSTAR
0.000167
Loading maneuver chart data...
Computing Atmospheric mass density...
Loading historical data...
Loading historical data...
Loading historical data...
Loading historical data...
Loading historical data...
Loading historical data...
Loading historical data...

Documentation

Showing up to 5 results
|